User: anonymous
Location: Caltech
(34.1382°N, 118.1253°W)
Time: 06:34:41
(UTC-07:00)
Language:

ADEOS II - Orbit

View from above orbital plane
View from above orbital plane
View from above satellite
View from above satellite

Ground track
Ground track

The orbit data is extracted from the following two-line orbital elements,

1 27597U 02056A   14292.63408788  .00000427  00000-0  19255-3 0  4325
2 27597 098.2774 293.8664 0000619 052.5536 057.9325 14.26884352616848
Epoch (UTC): 19 October 2014 15:13:05
Eccentricity: 0.0000619
inclination: 98.2774°
perigee height: 802 km
apogee height: 802 km
right ascension of ascending node: 293.8664°
argument of perigee: 52.5536°
revolutions per day: 14.26884352
mean anomaly at epoch: 57.9325°
orbit number at epoch: 61684

The dashed part of the orbit path shows where the satellite is in the earth's shadow,  

DLR